User: anonymous
Location: Stigler
(35.2540°N, 95.1230°W)
Time: 10:20:10
(UTC-05:00)
Language:

Cosmos 1805 - Orbit

View from above orbital plane
View from above orbital plane
View from above satellite
View from above satellite

Ground track
Ground track

The orbit data is extracted from the following two-line orbital elements,

1 17191U 86097A   14204.93458247  .00001288  00000-0  82778-4 0  9458
2 17191 082.4991 349.7193 0012272 082.6596 277.6026 15.07527209503769
Epoch (UTC): 23 July 2014 22:25:47
Eccentricity: 0.0012272
inclination: 82.4991°
perigee height: 535 km
apogee height: 552 km
right ascension of ascending node: 349.7193°
argument of perigee: 82.6596°
revolutions per day: 15.07527209
mean anomaly at epoch: 277.6026°
orbit number at epoch: 50376

The dashed part of the orbit path shows where the satellite is in the earth's shadow,  

DLR